Houston, TX

11:25 AM CST on November 13, 2019 (GMT -0600)
Houston

Weather History for KTME - October, 2019

Change the Weather History Date:

Monday, October 21, 2019

  Actual Average (WUND) Record (WUND)
Temperature  
Mean Temperature 68 °F -  
Max Temperature 80 °F - - (-1)
Min Temperature 57 °F - - (-1)
Cooling Degree Days 4    
Growing Degree Days 18 (Base 50)    
Moisture  
Dew Point 62 °F    
Average Humidity 75    
Maximum Humidity 100    
Minimum Humidity 34    
Precipitation  
Precipitation 0.00 in - - ()
Sea Level Pressure  
Sea Level Pressure 29.85 in    
Wind  
Wind Speed 9 mph ()    
Max Wind Speed 16 mph    
Max Gust Speed 32 mph    
Visibility 9.5 miles    
Events Rain    
Averages and records for this station are not official NWS values.
T = Trace of Precipitation, MM = Missing Value Source: Averaged Metar Reports

Daily Weather History Graph

Daily Weather History Graph

Search for Another Location

Airport or City:

Astronomy

Oct. 21, 2019 Rise Set
Actual Time 7:29 AM CDT 6:46 PM CDT
Civil Twilight 7:04 AM CDT 7:11 PM CDT
Nautical Twilight 6:37 AM CDT 7:38 PM CDT
Astronomical Twilight 6:09 AM CDT 8:06 PM CDT
Moon 12:14 AM CDT (10/21) 2:33 PM CDT (10/21)
Length of Visible Light 12h 06m
Length of Day
11h 17m
Waning Gibbous, 48% of the Moon is Illuminated
Oct 21
Waning Gibbous
Oct 27
New
Nov 4
First Quarter
Nov 12
Full
Nov 19
Last Quarter

Hourly Weather History & Observations

Time (CDT) Temp. Heat Index Dew Point Humidity Pressure Visibility Wind Dir Wind Speed Gust Speed Precip Events Conditions
12:15 AM 78.8 °F - 77.0 °F 94% 29.76 in 10.0 mi South 9.2 mph - N/A   Scattered Clouds
12:35 AM 78.8 °F - 77.0 °F 94% 29.76 in 10.0 mi South 8.1 mph - N/A   Partly Cloudy
12:55 AM 78.8 °F - 77.0 °F 94% 29.74 in 10.0 mi South 9.2 mph - N/A   Mostly Cloudy
1:15 AM 78.8 °F - 77.0 °F 94% 29.73 in 10.0 mi South 10.4 mph - N/A   Scattered Clouds
1:35 AM 78.8 °F - 77.0 °F 94% 29.72 in 10.0 mi South 11.5 mph - N/A   Scattered Clouds
1:55 AM 78.8 °F - 77.0 °F 94% 29.72 in 10.0 mi South 12.7 mph - N/A   Mostly Cloudy
2:15 AM 78.8 °F - 77.0 °F 94% 29.73 in 10.0 mi South 10.4 mph - N/A   Mostly Cloudy
2:35 AM 78.8 °F - 77.0 °F 94% 29.72 in 10.0 mi South 10.4 mph - N/A   Mostly Cloudy
2:55 AM 78.8 °F - 77.0 °F 94% 29.72 in 10.0 mi South 10.4 mph 16.1 mph N/A   Mostly Cloudy
3:15 AM 78.8 °F - 77.0 °F 94% 29.73 in 10.0 mi South 8.1 mph - N/A   Overcast
3:35 AM 78.8 °F - 77.0 °F 94% 29.71 in 10.0 mi SSW 5.8 mph - N/A   Unknown
3:55 AM 78.8 °F - 78.8 °F 100% 29.70 in 6.0 mi South 8.1 mph - N/A Rain Light Rain
4:15 AM 78.8 °F - 78.8 °F 100% 29.71 in 3.0 mi SSW 13.8 mph - N/A   Light Drizzle
4:35 AM 77.0 °F - 77.0 °F 100% 29.71 in 10.0 mi SSW 15.0 mph - N/A   Mostly Cloudy
4:55 AM 75.2 °F - 73.4 °F 94% 29.73 in 10.0 mi SSW 10.4 mph - N/A   Overcast
5:15 AM 75.2 °F - 71.6 °F 89% 29.70 in 10.0 mi South 6.9 mph - N/A   Overcast
5:35 AM 75.2 °F - 71.6 °F 89% 29.70 in 10.0 mi South 6.9 mph - N/A   Mostly Cloudy
5:55 AM 75.2 °F - 75.2 °F 100% 29.73 in 10.0 mi WSW 4.6 mph - N/A   Mostly Cloudy
6:15 AM 71.6 °F - 68.0 °F 88% 29.76 in 6.0 mi NNW 16.1 mph 32.2 mph N/A Rain Light Rain
6:35 AM 68.0 °F - 66.2 °F 94% 29.76 in 3.0 mi North 10.4 mph 25.3 mph N/A Rain Heavy Rain
6:55 AM 68.0 °F - 66.2 °F 94% 29.80 in 8.0 mi Calm Calm - N/A   Light Drizzle
7:15 AM 68.0 °F - 66.2 °F 94% 29.78 in 10.0 mi North 4.6 mph - N/A   Overcast
7:35 AM 68.0 °F - 66.2 °F 94% 29.77 in 8.0 mi NNW 10.4 mph - N/A   Light Drizzle
7:55 AM 68.0 °F - 66.2 °F 94% 29.77 in 10.0 mi NNW 12.7 mph - N/A Rain Light Rain
8:15 AM 68.0 °F - 66.2 °F 94% 29.80 in 9.0 mi North 8.1 mph - N/A   Light Drizzle
8:35 AM 66.2 °F - 66.2 °F 100% 29.82 in 5.0 mi NNE 6.9 mph - N/A Rain Light Rain
8:55 AM 66.2 °F - 66.2 °F 100% 29.82 in 9.0 mi North 9.2 mph - N/A Rain Light Rain
9:15 AM 66.2 °F - 66.2 °F 100% 29.84 in 8.0 mi NNE 8.1 mph - N/A   Partly Cloudy
9:35 AM 68.0 °F - 66.2 °F 94% 29.85 in 10.0 mi NNE 8.1 mph - N/A   Partly Cloudy
9:55 AM 68.0 °F - 64.4 °F 88% 29.85 in 10.0 mi NNE 11.5 mph - N/A   Clear
10:15 AM 68.0 °F - 64.4 °F 88% 29.88 in 10.0 mi NNE 8.1 mph 13.8 mph N/A   Clear
10:35 AM 68.0 °F - 64.4 °F 88% 29.89 in 10.0 mi North 9.2 mph - N/A   Partly Cloudy
10:55 AM 69.8 °F - 62.6 °F 78% 29.89 in 10.0 mi NNE 13.8 mph - N/A   Scattered Clouds
11:15 AM 71.6 °F - 60.8 °F 69% 29.89 in 10.0 mi NNE 16.1 mph - N/A   Scattered Clouds
11:35 AM 71.6 °F - 60.8 °F 69% 29.89 in 10.0 mi NNE 16.1 mph - N/A   Scattered Clouds
11:55 AM 71.6 °F - 60.8 °F 69% 29.90 in 10.0 mi NNE 15.0 mph - N/A   Mostly Cloudy
12:15 PM 73.4 °F - 60.8 °F 65% 29.90 in 10.0 mi North 8.1 mph - N/A   Scattered Clouds
12:35 PM 75.2 °F - 60.8 °F 61% 29.89 in 10.0 mi NNE 11.5 mph - N/A   Clear
12:55 PM 75.2 °F - 60.8 °F 61% 29.89 in 10.0 mi NNE 6.9 mph - N/A   Clear
1:15 PM 75.2 °F - 60.8 °F 61% 29.88 in 10.0 mi North 6.9 mph 13.8 mph N/A   Clear
1:35 PM 77.0 °F - 60.8 °F 57% 29.86 in 10.0 mi NE 9.2 mph - N/A   Clear
1:55 PM 77.0 °F - 59.0 °F 54% 29.85 in 10.0 mi NNE 9.2 mph - N/A   Clear
2:15 PM 78.8 °F - 59.0 °F 51% 29.85 in 10.0 mi Variable 6.9 mph 13.8 mph N/A   Clear
2:35 PM 78.8 °F - 59.0 °F 51% 29.84 in 10.0 mi North 9.2 mph - N/A   Clear
2:55 PM 78.8 °F - 57.2 °F 47% 29.84 in 10.0 mi North 6.9 mph 12.7 mph N/A   Clear
3:15 PM 80.6 °F 80.3 °F 53.6 °F 39% 29.85 in 10.0 mi NNE 10.4 mph - N/A   Clear
3:35 PM 80.6 °F 80.3 °F 53.6 °F 39% 29.85 in 10.0 mi North 11.5 mph - N/A   Clear
3:55 PM 80.6 °F 80.3 °F 53.6 °F 39% 29.85 in 10.0 mi North 10.4 mph - N/A   Clear
4:15 PM 80.6 °F - 51.8 °F 37% 29.85 in 10.0 mi North 8.1 mph 13.8 mph N/A   Clear
4:35 PM 80.6 °F - 51.8 °F 37% 29.84 in 10.0 mi North 9.2 mph - N/A   Clear
4:55 PM 80.6 °F - 50.0 °F 34% 29.84 in 10.0 mi North 11.5 mph - N/A   Clear
5:15 PM 78.8 °F - 50.0 °F 36% 29.85 in 10.0 mi North 13.8 mph - N/A   Clear
5:35 PM 78.8 °F - 50.0 °F 36% 29.86 in 10.0 mi North 8.1 mph - N/A   Clear
5:55 PM 77.0 °F - 50.0 °F 39% 29.87 in 10.0 mi North 6.9 mph - N/A   Clear
6:15 PM 73.4 °F - 51.8 °F 47% 29.88 in 10.0 mi North 6.9 mph - N/A   Clear
6:35 PM 69.8 °F - 55.4 °F 60% 29.89 in 10.0 mi North 5.8 mph - N/A   Clear
6:55 PM 68.0 °F - 53.6 °F 60% 29.91 in 10.0 mi North - - N/A   Clear
7:15 PM 66.2 °F - 53.6 °F 64% 29.92 in 10.0 mi North 5.8 mph - N/A   Clear
7:35 PM 66.2 °F - 53.6 °F 64% 29.93 in 10.0 mi NNE 4.6 mph - N/A   Clear
7:55 PM 64.4 °F - 53.6 °F 68% 29.96 in 10.0 mi North 4.6 mph - N/A   Clear
8:15 PM 64.4 °F - 53.6 °F 68% 29.97 in 10.0 mi North 5.8 mph - N/A   Clear
8:35 PM 62.6 °F - 53.6 °F 72% 29.98 in 10.0 mi North 5.8 mph - N/A   Clear
8:55 PM 60.8 °F - 53.6 °F 77% 29.99 in 10.0 mi North 4.6 mph - N/A   Clear
9:15 PM 60.8 °F - 53.6 °F 77% 29.99 in 10.0 mi North 3.5 mph - N/A   Clear
9:35 PM 59.0 °F - 51.8 °F 77% 30.00 in 10.0 mi North 8.1 mph - N/A   Clear
9:55 PM 59.0 °F - 51.8 °F 77% 30.01 in 10.0 mi North 6.9 mph - N/A   Clear
10:15 PM 59.0 °F - 51.8 °F 77% 30.03 in 10.0 mi North 8.1 mph - N/A   Clear
10:35 PM 57.2 °F - 51.8 °F 82% 30.04 in 10.0 mi North 6.9 mph - N/A   Clear
10:55 PM 57.2 °F - 51.8 °F 82% 30.04 in 10.0 mi North 8.1 mph - N/A   Clear
11:15 PM 57.2 °F - 50.0 °F 77% 30.04 in 10.0 mi North 9.2 mph - N/A   Clear
11:35 PM 59.0 °F - 50.0 °F 72% 30.05 in 10.0 mi NNE 10.4 mph - N/A   Clear
11:55 PM 57.2 °F - 48.2 °F 72% 30.06 in 10.0 mi NNE 8.1 mph - N/A   Clear